Location: Newark
(25.6108°S, 54.5803°W)
Time: 08:13:05
(UTC+00:00)

Courier 1B - Pass Details

Date: 04 November 2020
Orbit: 962 x 1209 km, 28.3° (Epoch: 02 December)

Event Time Altitude Azimuth Distance (km) Brightness Sun altitude
Rises 23:35:20 0° 283° (WNW) 3,764 11.3 -21.1°
Reaches altitude 10° 23:37:58 10° 282° (WNW) 2,847 10.6 -21.6°
Maximum altitude 23:44:59 87° 193° (SSW) 1,100 7.7 -22.9°
Enters shadow 23:48:53 31° 104° (ESE) 1,853 8.6 -23.7°
Drops below altitude 10° 23:52:31 10° 103° (ESE) 3,041 - -24.4°
Sets 23:55:24 0° 102° (ESE) 4,034 - -24.9°
